Wind_Speed
29 28 30 26 20 17 16 16 5 14 21 11 4 4 7 5 8 5 5 2 3 3 5 4 6 4 3 15 12 5 5 2 3 5 2 3 2 8 10 6 5 2 2 7
31 29 27 26 21 20 15 9 8 15 30 9 7 5 5 5 4 4 2 1 1 2 3 4 3 4 4 11 12 9 6 2 2 2 2 4 3 2 4 3 2 15 9 4
31 31 29 26 23 23 19 7 3 8 23 12 16 8 9 7 9 14 3 1 1 1 3 2 4 5 4 16 10 13 1 2 3 1 2 3 5 10 10 6 5 7 11 9
34 34 32 29 25 25 22 11 5 8 4 9 10 14 12 14 8 9 14 5 8 4 2 3 4 4 5 5 8 6 2 5 5 6 11 7 8 7 10 10 10 10 6 13
36 36 35 31 29 28 28 8 6 7 2 9 14 14 12 17 15 8 6 6 6 10 8 9 9 4 2 3 6 6 7 1 5 5 10 11 8 10 17 15 10 13 12 14
41 39 35 33 32 33 25 24 26 9 5 9 9 9 15 17 13 10 18 11 12 12 9 9 14 17 16 11 7 5 5 2 2 3 5 7 6 9 8 2 5 4 6 9
36 40 41 38 37 41 41 25 19 13 8 12 12 15 17 18 18 15 12 20 9 3 3 11 11 15 16 14 12 13 5 3 2 1 2 7 3 4 5 6 9 9 7 9
38 36 41 45 44 45 46 37 25 16 8 8 12 16 19 21 21 19 19 9 7 10 10 3 4 1 2 7 14 15 13 5 2 3 6 8 9 7 4 6 8 7 4 10
37 35 35 42 48 51 45 44 38 18 4 12 19 15 23 13 10 8 21 9 6 3 1 2 2 2 2 1 2 8 13 10 3 3 3 5 3 2 3 1 6 5 5 7
37 35 33 39 44 45 50 34 47 27 14 17 25 14 13 18 15 4 5 9 5 11 4 3 5 4 2 3 2 5 6 3 9 4 4 6 9 8 3 2 5 8 4 9
34 34 34 35 38 43 46 43 36 39 11 6 28 28 19 18 22 6 11 6 5 4 6 4 3 3 4 3 2 4 7 6 5 5 4 8 0 2 1 7 9 12 22 19
33 34 33 31 35 39 42 31 38 38 23 6 23 27 28 34 36 24 21 9 7 10 3 4 3 4 1 5 3 2 4 6 4 8 6 2 3 6 14 17 20 22 26 35
29 33 33 32 35 38 40 33 36 35 19 10 9 16 26 26 27 25 12 17 12 11 10 4 3 3 4 4 5 3 3 4 3 0 3 7 9 10 12 21 21 25 27 28
21 34 33 31 30 33 45 31 38 34 10 3 6 17 19 32 27 29 28 12 13 8 11 2 2 2 5 3 1 3 2 3 3 5 7 14 11 13 22 25 23 24 28 20
22 33 31 31 27 32 38 30 37 31 16 4 5 13 20 19 30 25 24 23 14 13 6 2 2 1 2 0 0 3 3 3 3 5 2 4 10 19 16 21 20 20 22 17
26 31 35 33 30 31 35 11 24 27 17 5 3 7 9 21 26 33 20 20 21 14 4 3 6 5 3 2 2 1 1 3 3 2 9 12 9 12 14 19 17 16 15 15
24 34 37 35 37 33 14 8 19 30 14 4 1 1 4 16 26 22 21 20 13 16 5 5 4 3 6 2 4 3 6 8 7 6 8 4 5 8 15 15 15 13 10 14
28 39 41 36 35 29 10 7 23 31 12 4 2 2 3 16 8 5 14 10 10 11 5 3 3 5 3 3 5 6 11 13 5 12 11 12 13 12 13 12 14 13 12 10
35 38 39 38 24 14 7 21 30 17 4 6 4 3 2 16 5 7 9 11 3 7 3 3 6 3 1 6 9 10 11 10 14 16 13 7 8 9 12 12 10 10 10 10
47 46 18 7 10 26 27 10 3 4 2 3 2 3 3 10 4 2 4 1 3 2 1 6 2 3 11 12 10 9 11 11 12 14 12 15 14 13 12 10 8 8 7 7
12 6 10 39 37 13 4 4 3 3 3 2 1 2 2 3 3 2 3 2 2 3 2 2 2 3 5 13 11 11 11 11 9 8 8 9 9 8 6 6 6 6 6 8
19 23 27 9 5 5 4 2 2 2 2 3 1 3 3 4 4 3 2 2 1 2 3 3 2 3 10 11 12 12 12 10 9 8 6 4 4 5 5 7 9 11 12 14
28 7 6 5 7 8 4 3 3 3 5 8 8 3 3 4 6 4 2 3 2 2 3 3 3 9 10 11 10 11 11 9 7 8 9 8 8 9 10 13 14 16 20 23
9 7 7 4 4 4 3 2 2 4 4 6 6 4 3 5 4 3 4 3 3 3 2 2 3 9 8 8 9 8 10 10 12 13 13 16 18 20 19 19 19 23 26 25
7 7 5 4 2 3 4 4 1 5 4 4 2 6 6 4 4 3 3 3 4 3 2 2 3 5 7 9 10 11 12 14 16 16 19 20 22 24 26 24 25 26 27 27
6 9 4 5 2 6 8 13 7 11 8 5 6 3 4 6 3 5 4 2 2 2 1 1 2 6 8 10 10 13 15 17 19 20 21 22 23 25 26 25 25 26 26 26
6 5 11 5 4 3 7 11 12 9 5 3 3 5 4 3 3 3 3 2 2 4 5 5 6 7 8 9 11 13 16 19 20 20 20 21 22 22 24 26 24 23 23 23
Wind_Direction
257 256 261 261 252 239 246 247 246 203 210 199 187 183 178 232 281 292 259 268 268 305 329 349 11 25 61 8 12 46 1 131 237 248 227 112 173 218 223 225 211 240 276 240
252 257 257 253 244 226 232 232 249 209 196 213 210 137 170 221 247 215 235 231 352 338 333 318 26 334 312 20 15 1 346 25 159 344 355 28 72 286 228 203 226 249 251 253
249 253 256 249 239 223 225 236 220 211 212 207 215 171 191 200 238 239 230 228 269 144 289 295 305 327 319 354 336 319 252 59 32 188 59 348 307 319 309 279 254 257 244 263
250 251 251 247 234 217 222 219 221 200 211 209 200 203 191 201 216 212 204 220 214 186 258 305 271 272 308 325 3 345 297 210 173 266 293 281 268 283 302 280 259 250 255 257
250 250 250 240 227 216 225 215 186 199 237 241 193 195 198 197 205 188 204 227 188 203 219 232 273 306 24 294 351 5 354 282 186 226 225 248 267 281 289 266 261 267 264 266
248 244 240 231 221 214 222 228 237 246 192 209 196 191 186 203 184 228 230 219 224 239 242 252 264 267 265 255 284 307 309 330 161 229 226 242 270 245 221 232 228 235 296 305
249 242 235 229 222 216 218 220 210 217 241 201 206 191 198 201 204 212 215 220 211 178 206 313 284 278 254 243 241 215 250 330 307 216 288 235 258 247 215 239 263 244 259 312
246 246 236 227 222 218 222 222 214 210 235 227 210 193 189 200 199 213 222 219 221 243 265 272 274 253 264 228 223 212 205 199 254 224 216 303 293 265 218 207 289 21 357 358
243 240 239 226 222 218 221 223 218 218 201 216 208 199 189 191 191 210 225 221 182 103 175 175 247 240 260 248 237 195 181 191 192 199 203 237 250 125 18 53 263 8 343 314
238 234 237 223 218 217 219 214 214 215 228 232 193 190 190 185 181 201 161 194 196 193 185 213 212 228 256 255 222 164 171 178 215 231 260 276 259 291 348 192 319 306 270 283
237 227 227 219 214 215 208 214 213 204 200 224 207 196 176 176 180 175 155 132 182 172 189 208 189 189 232 243 204 177 176 195 189 210 241 267 36 144 344 333 293 282 316 309
228 218 219 215 209 208 204 203 208 209 212 220 202 200 208 211 205 184 169 185 152 178 160 194 190 202 200 208 233 123 195 201 191 197 205 301 34 5 317 313 299 305 307 302
219 209 212 205 203 200 196 197 183 187 184 182 217 192 195 198 208 209 180 219 207 187 195 163 192 209 162 175 224 210 242 183 226 317 252 263 289 317 9 332 319 314 311 301
232 203 205 196 190 189 192 177 184 184 144 139 202 177 196 202 199 206 209 210 187 211 200 167 158 201 193 200 235 212 222 156 232 262 289 325 292 357 352 337 337 331 326 318
204 192 197 186 182 182 175 169 176 174 172 153 178 193 222 213 199 205 214 215 208 225 224 109 237 185 162 19 56 230 198 228 240 282 23 313 305 326 334 340 338 341 342 347
183 184 178 172 162 164 143 133 188 185 151 115 147 200 210 204 201 211 210 216 212 210 201 193 195 226 170 184 235 335 79 62 57 251 309 298 304 318 318 334 336 334 340 354
170 173 166 167 166 168 137 147 168 169 135 134 73 291 194 204 202 211 216 227 218 210 196 189 184 236 185 177 245 43 355 341 314 342 321 274 309 319 327 332 334 327 336 355
151 160 156 158 162 157 100 87 150 159 153 132 123 233 167 174 162 149 185 172 161 168 173 146 180 150 180 225 57 24 8 341 328 342 329 301 298 296 306 331 339 346 356 346
136 144 143 142 149 166 133 126 148 145 126 159 165 167 138 164 141 152 180 184 155 142 165 197 165 150 152 36 18 6 360 346 320 323 328 325 342 333 321 335 344 357 15 24
135 128 121 101 124 142 136 116 99 149 210 155 165 153 150 174 157 123 134 88 117 144 171 131 83 86 74 31 16 353 341 332 334 337 342 337 345 340 334 355 3 8 18 45
94 74 92 123 120 122 118 113 153 156 159 177 122 148 158 118 108 107 32 119 119 141 138 190 87 74 20 358 360 355 349 347 345 333 321 315 309 317 345 9 37 53 62 75
119 121 126 120 66 68 90 84 94 52 56 2 27 67 96 90 115 108 135 90 94 80 26 68 75 40 7 357 357 358 1 4 8 7 0 351 8 28 44 59 71 82 92 101
115 111 84 35 360 48 50 24 32 50 358 350 8 60 65 62 64 86 148 98 90 87 50 75 52 15 16 12 14 21 27 33 38 49 54 61 73 83 85 91 94 104 106 110
55 46 39 65 8 38 32 347 358 340 329 355 11 59 50 12 57 350 74 37 53 78 80 89 22 19 38 46 49 57 58 67 74 76 82 85 89 92 96 95 101 106 104 106
65 42 52 61 335 14 347 352 304 351 356 15 87 63 56 26 72 31 95 58 68 45 93 96 20 44 67 80 81 80 83 87 89 92 93 94 98 98 99 103 106 106 106 104
65 50 58 2 44 355 11 8 12 22 29 51 45 71 64 46 49 49 32 83 114 145 93 47 58 77 90 98 99 104 104 101 102 100 102 103 101 100 102 103 101 100 100 99
58 45 31 64 55 339 346 354 346 11 29 59 56 55 52 62 62 62 24 78 97 113 87 84 92 97 103 107 109 111 113 110 108 107 104 103 106 108 105 100 100 100 98 99
Height
1430 1434 1438 1442 1446 1451 1453 1453 1449 1448 1453 1458 1452 1453 1456 1458 1455 1455 1454 1452 1450 1448 1443 1438 1434 1431 1430 1430 1422 1426 1428 1429 1431 1426 1421 1421 1422 1425 1427 1435 1437 1441 1438 1424
1422 1426 1430 1435 1440 1445 1448 1446 1445 1445 1445 1443 1445 1451 1453 1455 1455 1454 1454 1452 1452 1450 1447 1444 1439 1436 1433 1433 1431 1433 1429 1431 1433 1428 1425 1422 1426 1427 1424 1428 1432 1428 1437 1424
1414 1418 1422 1428 1433 1438 1443 1443 1439 1439 1433 1433 1437 1444 1448 1451 1452 1454 1453 1452 1452 1451 1450 1446 1443 1440 1435 1434 1433 1431 1429 1432 1436 1432 1436 1436 1436 1432 1429 1429 1430 1424 1420 1420
1404 1409 1414 1419 1425 1431 1437 1434 1429 1428 1425 1427 1431 1436 1438 1443 1447 1449 1449 1450 1450 1451 1452 1449 1444 1441 1439 1436 1434 1430 1428 1430 1433 1437 1431 1431 1433 1432 1428 1428 1424 1424 1417 1414
1393 1398 1403 1410 1416 1424 1427 1423 1424 1424 1422 1423 1427 1429 1433 1435 1441 1444 1445 1446 1445 1447 1448 1445 1442 1441 1442 1441 1437 1435 1435 1431 1431 1433 1427 1424 1427 1425 1420 1417 1415 1411 1411 1410
1379 1385 1392 1399 1406 1413 1413 1414 1416 1419 1413 1416 1420 1419 1424 1430 1435 1438 1438 1439 1442 1443 1443 1443 1442 1441 1440 1441 1442 1442 1439 1433 1435 1430 1428 1428 1428 1416 1412 1408 1407 1407 1409 1404
1365 1370 1377 1385 1393 1398 1402 1404 1411 1416 1410 1410 1410 1415 1420 1422 1426 1431 1433 1436 1436 1439 1440 1440 1438 1437 1435 1436 1436 1439 1438 1439 1438 1436 1437 1431 1408 1404 1405 1408 1403 1399 1398 1399
1351 1356 1361 1370 1378 1386 1391 1398 1402 1406 1404 1407 1407 1408 1414 1420 1424 1427 1429 1431 1435 1437 1441 1443 1435 1432 1431 1426 1427 1430 1436 1439 1437 1433 1429 1414 1405 1402 1403 1404 1402 1403 1401 1398
1337 1342 1346 1354 1362 1372 1382 1388 1394 1399 1399 1395 1404 1405 1407 1412 1420 1426 1426 1431 1434 1436 1439 1438 1432 1428 1423 1421 1418 1423 1430 1433 1437 1437 1427 1420 1401 1401 1401 1401 1404 1401 1401 1397
1323 1329 1334 1341 1349 1359 1368 1374 1384 1391 1391 1393 1395 1395 1400 1407 1414 1418 1422 1428 1432 1435 1435 1435 1430 1427 1422 1419 1414 1422 1428 1430 1429 1430 1429 1411 1403 1400 1401 1407 1404 1397 1396 1392
1309 1317 1323 1330 1338 1348 1356 1365 1373 1380 1382 1384 1386 1389 1393 1401 1406 1411 1417 1425 1426 1429 1429 1428 1427 1427 1421 1418 1414 1414 1416 1420 1422 1426 1425 1417 1400 1401 1403 1403 1398 1397 1392 1390
1298 1306 1314 1321 1329 1339 1350 1358 1365 1375 1383 1383 1383 1385 1387 1390 1393 1405 1409 1407 1411 1416 1420 1423 1420 1422 1423 1415 1413 1413 1413 1410 1407 1409 1405 1400 1401 1402 1402 1400 1396 1395 1393 1385
1290 1298 1306 1314 1322 1331 1342 1348 1358 1368 1373 1379 1381 1379 1384 1390 1394 1399 1403 1406 1406 1408 1409 1413 1414 1414 1414 1414 1412 1407 1407 1405 1405 1406 1399 1398 1399 1400 1401 1398 1394 1390 1387 1382
1283 1291 1300 1309 1317 1327 1334 1343 1351 1360 1368 1373 1377 1378 1381 1384 1389 1393 1396 1400 1403 1407 1407 1408 1409 1408 1407 1408 1405 1405 1403 1403 1401 1400 1397 1396 1395 1397 1397 1393 1391 1386 1381 1377
1275 1285 1296 1306 1315 1323 1331 1342 1350 1358 1366 1368 1373 1373 1376 1380 1384 1388 1392 1397 1401 1404 1405 1406 1406 1405 1405 1407 1406 1403 1401 1401 1401 1397 1406 1406 1402 1400 1398 1395 1390 1386 1381 1376
1274 1284 1295 1306 1315 1321 1332 1345 1351 1356 1361 1365 1369 1370 1371 1375 1380 1385 1388 1393 1397 1400 1401 1403 1403 1402 1403 1405 1403 1403 1402 1403 1404 1405 1405 1403 1402 1400 1397 1394 1390 1387 1382 1377
1273 1284 1296 1308 1317 1325 1335 1341 1343 1353 1361 1365 1368 1367 1368 1371 1377 1381 1386 1390 1392 1395 1397 1399 1400 1400 1400 1403 1403 1405 1404 1403 1403 1403 1400 1399 1400 1398 1394 1392 1388 1385 1382 1375
1275 1286 1301 1312 1322 1333 1336 1338 1341 1353 1360 1363 1368 1369 1369 1369 1373 1379 1383 1384 1387 1389 1393 1395 1397 1400 1400 1399 1406 1406 1404 1403 1403 1402 1401 1399 1397 1395 1392 1390 1386 1384 1378 1374
1285 1296 1308 1319 1329 1334 1339 1344 1351 1355 1360 1361 1364 1365 1363 1368 1370 1375 1378 1379 1380 1385 1388 1391 1392 1394 1399 1408 1408 1407 1407 1406 1404 1402 1398 1397 1394 1394 1391 1388 1384 1383 1381 1377
1296 1305 1315 1322 1330 1336 1343 1350 1353 1357 1357 1359 1360 1361 1361 1366 1366 1371 1373 1373 1378 1381 1386 1388 1391 1404 1411 1411 1410 1409 1407 1404 1401 1399 1395 1393 1392 1394 1391 1387 1385 1381 1381 1378
1305 1310 1317 1327 1334 1340 1345 1350 1353 1355 1356 1357 1358 1358 1358 1361 1363 1368 1371 1373 1380 1383 1386 1386 1394 1404 1412 1413 1411 1409 1406 1403 1401 1399 1395 1394 1394 1394 1390 1387 1385 1382 1382 1381
1312 1316 1327 1332 1336 1340 1344 1350 1352 1352 1355 1357 1357 1358 1359 1361 1363 1367 1373 1374 1378 1379 1389 1393 1407 1415 1416 1414 1411 1408 1404 1402 1400 1397 1396 1395 1393 1391 1389 1388 1387 1384 1385 1385
1324 1326 1332 1339 1348 1357 1359 1357 1357 1358 1363 1361 1359 1360 1361 1362 1364 1369 1371 1377 1386 1393 1400 1412 1418 1418 1416 1414 1411 1408 1406 1404 1401 1400 1399 1396 1394 1392 1391 1391 1390 1389 1389 1390
1327 1337 1354 1361 1369 1368 1369 1369 1368 1369 1367 1364 1363 1364 1366 1368 1371 1376 1377 1392 1392 1401 1411 1417 1422 1420 1418 1416 1414 1411 1409 1406 1405 1403 1401 1399 1397 1396 1396 1395 1396 1395 1395 1397
1341 1350 1368 1372 1374 1373 1372 1371 1370 1369 1367 1365 1365 1367 1370 1376 1380 1387 1389 1396 1407 1412 1417 1421 1423 1421 1419 1417 1415 1414 1412 1410 1408 1407 1405 1404 1403 1402 1401 1403 1403 1402 1401 1401
1354 1367 1373 1375 1374 1373 1371 1370 1369 1368 1367 1367 1369 1373 1379 1387 1392 1397 1406 1406 1413 1419 1422 1423 1422 1421 1420 1419 1417 1415 1415 1414 1412 1411 1411 1411 1410 1409 1409 1410 1409 1409 1409 1409
1368 1379 1380 1379 1379 1379 1377 1375 1373 1371 1371 1374 1378 1385 1394 1396 1401 1411 1415 1417 1421 1422 1424 1423 1423 1423 1422 1421 1421 1420 1418 1417 1416 1416 1417 1416 1416 1416 1415 1414 1416 1416 1416 1416